Flag for Malaysia Weather past 2 weeks in Johor Bahru, Malaysia

Now
84 °F

Passing clouds.


Feels Like: 94 °F
Forecast: 78 / 89 °F
Wind: 6 mph from Southwest

Location: Singapore / Paya Lebar

Current Time: Sep 17, 2014 at 10:11:40 PM

Latest Report: Sep 17, 2014 at 9:00 PM


Visibility: 4 mi

Pressure: 29.80 "Hg

Humidity: 79%

Dew point: 77 °F

Location of Johor BahruLocation

Historic Weather in Johor Bahru — Graph

°F

Johor Bahru temperature yesterday

Maximum temperature yesterday: 90 °F (at 1:00 PM)
Minimum temperature yesterday: 82 °F (at 5:00 AM)
Average temperature yesterday: 86 °F

Past Weeks' High & Low Weather Summary

 TemperatureHumidityPressure
High91 °F (Sep 4, 2:00 PM)94% (Sep 3, 3:00 PM)29.92 "Hg (Sep 3, 3:00 PM)
Low75 °F (Sep 3, 3:00 PM)46% (Sep 15, 3:00 PM)29.68 "Hg (Sep 16, 4:00 PM)
Average85 °F73%29.82 "Hg
* Reported Sep 2 9:00 PM — Sep 17 9:00 PM, Johor Bahru, Weather by CustomWeather, © 2014

Note: Actual official high and low records may vary slightly from our data, if they occured in-between our weather recording intervals... More about our weather records

Advertising

Johor Bahru weather history for previous 24 hours

 ConditionsComfort  
Time TempWeatherWind HumidityBarometerVisibility
9:00 PM
Sep 17
84 °FPassing clouds.6 mph79%29.80 "Hg4 mi
8:00 PM86 °FPassing clouds.3 mph75%29.77 "Hg4 mi
7:00 PM86 °FPartly sunny.5 mph75%29.77 "Hg3 mi
6:00 PM88 °FPartly sunny.6 mph70%29.74 "Hg4 mi
5:00 PM88 °FPartly sunny.9 mph66%29.74 "Hg4 mi
4:00 PM90 °FScattered clouds.6 mph63%29.74 "Hg4 mi
3:00 PM90 °FBroken clouds.9 mph63%29.74 "Hg4 mi
2:00 PM88 °FPartly sunny.10 mph66%29.77 "Hg5 mi
1:00 PM84 °FBroken clouds.9 mph74%29.80 "HgN/A
12:00 PM81 °FSprinkles. Scattered clouds.5 mph89%29.83 "Hg5 mi
11:00 AM88 °FBroken clouds.7 mph70%29.83 "HgN/A
10:00 AM86 °FPartly sunny.7 mph75%29.83 "HgN/A
9:00 AM84 °FPartly sunny.6 mph74%29.83 "HgN/A
8:00 AM84 °FPartly sunny.6 mph79%29.80 "HgN/A
7:00 AM82 °FPartly sunny.5 mph79%29.77 "HgN/A
6:00 AM82 °FPassing clouds.5 mph79%29.74 "HgN/A
5:00 AM82 °FPassing clouds.3 mph79%29.74 "HgN/A
11:00 PM
Sep 16
84 °FPassing clouds.7 mph70%29.80 "HgN/A
10:00 PM84 °FPassing clouds.8 mph70%29.77 "HgN/A
Weather by CustomWeather, © 2014

See weather overviewHow to use our weather pages